Temp
9 9 9 9 9 8 8 7 7 7 6 6 7 7 7 7 7 6 6 6 6 6 6 6 6 6 6 7 6 6 6 6 6 5 6 6 6 6 6 6 6 5 5
9 9 9 9 9 9 8 8 8 7 7 6 6 7 7 7 7 6 6 6 6 6 6 6 6 6 6 6 6 6 6 6 6 5 6 6 6 6 6 5 5 5 5
9 9 9 8 8 9 9 8 8 7 7 7 7 6 6 7 7 6 6 6 6 6 6 6 6 6 6 5 6 5 6 6 5 5 5 5 5 5 5 5 5 4 4
9 9 9 8 8 8 8 9 9 8 7 7 7 6 6 5 6 6 6 6 6 6 6 6 5 5 5 6 6 5 5 5 4 4 5 4 5 5 4 4 4 3 3
9 9 9 8 8 8 8 8 8 8 7 6 6 6 6 6 6 6 6 5 5 5 5 5 5 5 5 5 5 4 4 4 4 4 4 4 4 4 4 3 3 3 3
9 8 8 8 8 7 7 7 7 7 7 7 7 6 7 7 6 6 5 5 5 5 5 5 5 5 5 4 4 4 4 4 4 3 4 4 4 4 4 4 2 3 3
8 7 7 7 8 7 7 6 6 6 6 6 6 7 6 7 7 6 5 5 5 5 5 4 4 4 4 4 4 4 3 3 3 3 3 3 3 3 3 3 2 2 3
8 7 7 7 7 7 6 6 6 6 6 6 6 6 6 6 6 5 5 5 5 5 4 4 4 4 4 3 3 3 3 3 3 3 3 2 2 2 2 2 2 2 2
8 8 7 7 6 6 6 5 5 5 6 6 6 5 5 5 5 4 4 4 4 4 4 4 4 3 3 3 2 3 3 3 3 3 3 2 3 2 2 2 2 2 2
9 8 7 7 6 6 5 5 5 5 5 5 5 4 5 4 4 4 3 4 4 4 4 4 4 3 3 2 2 2 2 2 1 2 2 2 2 1 1 1 1 0 1
9 8 6 5 6 5 5 4 5 5 5 5 4 4 4 4 4 4 3 3 3 3 3 3 2 2 2 2 1 2 1 1 1 1 1 1 1 1 1 1 1 0 0
8 7 6 6 5 5 4 4 4 4 4 4 4 4 4 3 3 3 2 2 2 2 2 2 2 2 2 1 1 1 1 1 1 1 1 1 1 0 0 0 0 -0 -0
7 5 5 5 4 5 4 4 5 4 4 4 4 3 3 3 3 3 2 2 2 2 1 1 1 1 1 1 1 -0 0 0 0 0 0 -0 0 0 0 0 -0 -0 -1
6 5 4 5 6 5 4 5 4 4 3 4 3 3 3 2 2 2 1 1 0 -0 1 1 1 1 1 1 1 1 1 0 0 0 -0 -0 -1 -1 -1 -2 -2 -2 -2
4 4 4 4 4 4 4 4 3 3 3 3 3 3 2 2 2 1 1 0 0 1 1 1 1 1 1 0 0 -0 -0 -0 -1 -1 -2 -2 -2 -3 -3 -3 -4 -4 -4
3 3 3 3 3 4 4 4 3 3 2 2 2 2 2 1 1 2 1 1 1 1 0 0 0 -0 -0 -1 -1 -1 -1 -2 -2 -2 -3 -3 -4 -4 -4 -4 -5 -5 -5
3 3 3 3 3 3 3 3 2 2 2 3 3 3 2 2 2 2 1 1 0 0 0 -0 -0 -1 -1 -1 -2 -2 -2 -3 -3 -3 -4 -4 -4 -5 -5 -5 -6 -6 -6
2 2 2 2 2 2 2 2 2 2 2 2 2 2 2 1 1 1 0 -0 -0 -1 -1 -1 -2 -2 -2 -3 -3 -3 -4 -4 -4 -4 -5 -5 -5 -6 -6 -6 -7 -7 -8
2 2 2 2 2 2 2 2 1 1 2 1 1 1 1 0 -0 -0 -1 -1 -1 -2 -2 -2 -3 -3 -4 -4 -4 -4 -4 -5 -5 -6 -6 -6 -6 -7 -7 -7 -8 -8 -9
1 1 2 2 2 1 2 2 2 2 0 0 0 -0 -1 -1 -1 -1 -2 -2 -2 -2 -2 -2 -3 -3 -4 -5 -5 -5 -5 -5 -6 -6 -6 -7 -7 -7 -8 -8 -9 -9 -9
2 1 1 1 1 1 0 0 1 1 0 -0 -0 -1 -1 -2 -2 -2 -2 -2 -3 -3 -3 -3 -3 -4 -4 -4 -5 -5 -5 -6 -6 -7 -7 -7 -8 -8 -8 -9 -9 -9 -9
-1 -0 -1 -1 -2 -3 -3 -2 -1 -1 -1 -1 -2 -2 -2 -2 -2 -2 -3 -3 -3 -3 -4 -4 -4 -4 -4 -5 -5 -6 -6 -6 -7 -7 -8 -8 -8 -8 -8 -8 -9 -9 -9
-2 -3 -2 -3 -3 -4 -4 -3 -1 -2 -2 -2 -2 -2 -3 -3 -3 -4 -4 -4 -3 -3 -4 -4 -4 -4 -5 -5 -5 -6 -6 -6 -7 -7 -8 -8 -8 -8 -8 -8 -9 -9 -9
-3 -2 -2 -3 -4 -4 -3 -3 -2 -2 -2 -3 -3 -3 -3 -4 -4 -4 -4 -4 -3 -4 -4 -5 -5 -5 -5 -5 -5 -6 -6 -6 -7 -7 -7 -8 -8 -8 -8 -8 -8 -9 -9
-2 -1 -2 -2 -3 -3 -4 -3 -3 -3 -4 -3 -3 -3 -4 -4 -4 -4 -5 -5 -4 -4 -4 -5 -5 -5 -5 -5 -6 -6 -6 -6 -6 -7 -7 -7 -8 -8 -8 -8 -8 -8 -8
-2 -2 -2 -3 -3 -4 -4 -4 -4 -4 -5 -4 -4 -5 -4 -4 -4 -5 -5 -5 -4 -4 -4 -5 -5 -6 -6 -6 -6 -6 -6 -6 -7 -7 -7 -7 -7 -7 -8 -8 -8 -8 -8
Height
3152 3150 3145 3141 3137 3134 3132 3129 3127 3125 3123 3121 3120 3121 3122 3123 3125 3127 3129 3131 3133 3136 3139 3141 3144 3146 3147 3149 3152 3153 3156 3156 3157 3159 3161 3162 3163 3163 3162 3161 3161 3161 3163
3152 3149 3145 3141 3137 3135 3133 3131 3129 3126 3123 3122 3121 3122 3123 3123 3125 3126 3127 3130 3131 3133 3135 3136 3139 3141 3138 3143 3146 3148 3150 3150 3151 3154 3154 3155 3156 3156 3157 3155 3156 3157 3158
3151 3148 3145 3141 3138 3136 3134 3132 3131 3129 3126 3125 3125 3124 3124 3125 3126 3126 3127 3129 3131 3131 3132 3134 3137 3139 3139 3140 3141 3144 3144 3145 3145 3146 3147 3148 3150 3151 3152 3151 3152 3151 3152
3150 3148 3144 3141 3139 3136 3135 3134 3132 3131 3130 3129 3128 3127 3126 3127 3126 3126 3127 3128 3128 3129 3131 3133 3133 3134 3135 3137 3138 3139 3141 3140 3140 3142 3143 3145 3146 3146 3146 3145 3146 3148 3150
3148 3145 3143 3140 3138 3136 3135 3135 3133 3133 3132 3131 3130 3129 3128 3127 3126 3126 3127 3127 3128 3128 3128 3129 3131 3131 3132 3134 3135 3135 3135 3135 3136 3138 3139 3140 3140 3141 3141 3141 3142 3144 3146
3142 3142 3140 3139 3137 3136 3135 3133 3133 3132 3132 3132 3131 3130 3129 3127 3127 3127 3127 3127 3128 3128 3129 3129 3129 3129 3130 3130 3131 3131 3133 3133 3133 3133 3133 3134 3134 3135 3135 3135 3137 3141 3142
3139 3138 3137 3136 3134 3133 3133 3133 3132 3131 3131 3132 3131 3130 3129 3128 3128 3127 3127 3127 3126 3126 3127 3127 3127 3127 3128 3128 3129 3129 3128 3128 3129 3129 3130 3129 3130 3130 3131 3132 3133 3134 3136
3135 3134 3132 3132 3132 3131 3131 3131 3131 3131 3130 3131 3131 3130 3129 3128 3127 3127 3127 3126 3125 3125 3125 3125 3125 3125 3124 3125 3126 3126 3125 3125 3126 3126 3126 3126 3127 3128 3130 3131 3130 3130 3132
3130 3129 3127 3128 3129 3129 3130 3129 3130 3130 3130 3130 3129 3129 3128 3127 3127 3127 3126 3125 3125 3124 3124 3124 3124 3124 3123 3123 3123 3123 3123 3122 3122 3123 3124 3125 3126 3126 3126 3126 3126 3127 3126
3125 3122 3120 3122 3124 3126 3128 3128 3128 3128 3127 3127 3126 3126 3125 3125 3125 3125 3124 3123 3123 3123 3122 3122 3121 3121 3120 3120 3120 3120 3120 3120 3120 3121 3119 3121 3120 3120 3119 3119 3119 3118 3118
3118 3116 3116 3117 3119 3122 3124 3125 3126 3126 3125 3125 3124 3124 3123 3122 3122 3121 3120 3120 3120 3120 3120 3119 3119 3118 3118 3118 3118 3117 3117 3117 3116 3115 3116 3117 3116 3115 3112 3111 3109 3109 3107
3112 3112 3113 3115 3117 3118 3120 3121 3121 3121 3121 3122 3121 3120 3120 3118 3118 3116 3116 3117 3117 3116 3116 3115 3114 3114 3114 3113 3113 3112 3111 3111 3110 3108 3108 3108 3107 3105 3104 3101 3099 3096 3095
3109 3109 3110 3111 3113 3111 3115 3116 3116 3117 3118 3118 3117 3116 3116 3115 3115 3115 3115 3115 3114 3114 3113 3112 3112 3111 3110 3109 3109 3107 3107 3105 3105 3103 3101 3100 3098 3097 3095 3092 3090 3089 3086
3107 3108 3109 3113 3112 3110 3112 3112 3114 3114 3115 3114 3114 3113 3113 3112 3112 3112 3112 3111 3111 3110 3110 3110 3109 3108 3107 3105 3104 3102 3100 3099 3097 3096 3094 3092 3090 3088 3086 3084 3082 3080 3078
3105 3107 3108 3109 3110 3110 3110 3110 3112 3112 3111 3111 3110 3110 3110 3110 3109 3109 3108 3107 3107 3107 3106 3105 3104 3103 3102 3101 3098 3097 3094 3092 3091 3089 3086 3084 3082 3080 3077 3075 3074 3072 3070
3105 3107 3109 3109 3108 3108 3108 3109 3109 3109 3109 3109 3108 3108 3108 3107 3106 3106 3105 3105 3104 3103 3102 3100 3099 3097 3097 3095 3093 3092 3090 3088 3086 3084 3081 3079 3077 3074 3072 3069 3068 3067 3065
3106 3107 3107 3107 3106 3106 3106 3107 3107 3108 3108 3107 3106 3105 3105 3104 3103 3102 3102 3101 3099 3098 3097 3096 3095 3094 3092 3091 3089 3088 3087 3084 3082 3079 3077 3075 3073 3070 3068 3065 3064 3062 3060
3105 3106 3105 3105 3105 3105 3107 3107 3107 3106 3106 3104 3103 3102 3101 3100 3099 3099 3099 3097 3096 3095 3095 3094 3093 3092 3090 3088 3086 3084 3083 3080 3078 3075 3072 3070 3068 3065 3063 3061 3058 3057 3055
3105 3105 3106 3106 3106 3106 3106 3106 3105 3103 3101 3100 3099 3098 3097 3097 3096 3097 3096 3095 3095 3094 3093 3092 3090 3089 3087 3084 3082 3080 3078 3076 3073 3070 3067 3065 3063 3061 3059 3057 3055 3053 3052
3104 3106 3106 3106 3105 3104 3103 3103 3103 3100 3098 3097 3097 3096 3095 3095 3095 3095 3094 3093 3092 3091 3090 3089 3087 3085 3083 3080 3077 3075 3074 3072 3069 3066 3064 3061 3059 3057 3056 3054 3052 3050 3049
3104 3105 3104 3104 3103 3101 3099 3099 3099 3097 3095 3094 3094 3095 3095 3095 3095 3094 3092 3090 3087 3085 3084 3083 3082 3081 3079 3077 3074 3072 3070 3068 3065 3062 3060 3058 3056 3054 3052 3051 3050 3049 3047
3102 3103 3103 3102 3100 3098 3096 3096 3094 3094 3093 3093 3093 3094 3094 3093 3093 3091 3089 3087 3084 3083 3081 3079 3077 3076 3075 3073 3071 3069 3066 3064 3062 3059 3057 3055 3053 3051 3050 3048 3048 3047 3046
3102 3102 3101 3101 3100 3100 3098 3095 3094 3092 3092 3092 3092 3091 3091 3090 3089 3087 3085 3084 3082 3081 3079 3078 3075 3073 3071 3068 3067 3066 3064 3062 3059 3057 3054 3052 3050 3049 3048 3047 3046 3045 3044
3101 3100 3100 3099 3098 3097 3096 3095 3092 3091 3090 3089 3090 3089 3089 3087 3086 3084 3081 3079 3079 3078 3077 3075 3073 3070 3068 3067 3065 3063 3062 3060 3058 3056 3053 3051 3049 3047 3046 3045 3044 3043 3042
3099 3098 3097 3095 3094 3094 3093 3091 3090 3090 3089 3088 3087 3086 3085 3084 3081 3080 3079 3077 3076 3075 3073 3072 3070 3068 3067 3065 3063 3061 3059 3058 3056 3054 3052 3050 3048 3047 3046 3044 3043 3042 3041
3095 3095 3094 3093 3092 3090 3089 3088 3086 3084 3083 3083 3083 3082 3081 3080 3078 3077 3076 3074 3073 3071 3070 3068 3067 3065 3063 3063 3061 3060 3058 3056 3054 3053 3051 3049 3047 3046 3045 3044 3043 3042 3041
Wind_Speed
5 9 13 13 12 9 12 14 13 11 11 2 3 3 3 8 9 12 17 18 21 22 22 24 25 23 21 21 24 21 25 23 21 20 23 20 16 17 18 20 23 12 16
4 8 9 12 12 11 10 11 13 11 11 7 9 4 4 5 7 9 13 14 18 20 18 20 21 21 24 19 17 25 26 25 26 22 22 18 19 20 19 12 14 16 19
6 8 8 8 10 10 10 9 10 10 9 7 4 5 8 6 6 7 8 9 12 16 16 19 18 21 21 20 19 22 21 26 28 26 26 22 20 19 21 22 19 13 16
9 9 9 8 7 7 9 9 8 7 8 7 5 3 2 3 5 5 4 4 9 16 15 17 18 18 19 21 22 26 23 19 19 23 24 28 24 25 25 25 18 16 13
10 11 9 9 7 7 8 8 7 7 7 8 8 6 4 1 2 3 1 4 3 6 10 13 16 18 20 20 25 16 16 18 15 20 24 22 22 23 22 21 16 17 17
16 14 13 11 9 7 6 7 5 4 4 6 7 8 7 6 5 4 5 7 6 4 7 10 17 17 16 14 18 14 22 26 19 17 19 20 20 22 23 21 16 18 20
19 19 20 18 12 7 4 5 3 2 4 5 6 7 6 5 6 4 3 4 6 6 8 7 9 10 15 15 15 17 20 20 20 24 22 13 10 12 11 16 18 19 20
24 24 24 22 13 11 3 2 1 1 3 6 7 7 6 6 4 6 7 5 5 6 7 7 6 8 6 7 7 8 8 7 7 8 9 8 12 11 11 14 16 15 20
27 25 24 21 14 12 6 3 5 5 6 6 8 9 7 6 5 10 10 7 6 7 8 8 9 10 12 11 8 10 11 11 10 11 14 14 17 18 20 21 23 26 28
25 24 22 20 14 14 9 7 9 9 9 9 10 11 11 8 11 12 9 8 7 9 10 12 12 11 10 9 10 10 12 17 15 16 19 18 21 23 23 24 30 32 33
21 18 18 17 12 13 10 11 13 11 10 11 13 15 15 14 17 14 10 10 8 7 11 13 13 15 14 13 11 12 15 19 20 23 23 23 24 28 26 28 31 38 44
13 12 12 22 18 16 17 19 20 12 10 12 13 17 17 16 12 6 7 8 5 6 11 16 21 16 16 15 16 19 22 25 26 27 31 34 33 33 37 35 32 33 34
9 8 5 7 16 31 14 18 20 10 13 16 13 15 14 9 10 14 7 11 8 10 11 10 13 15 19 19 23 21 22 23 25 30 29 30 29 30 31 32 31 31 32
4 10 11 14 20 15 21 20 16 13 12 13 14 12 8 9 7 9 8 13 16 13 11 15 17 19 19 18 20 21 22 23 24 25 26 27 27 27 27 27 27 26 26
4 7 8 6 10 10 11 9 13 14 14 14 10 9 6 9 7 12 15 11 10 12 12 14 15 17 17 19 20 20 22 22 21 21 22 23 23 22 23 23 23 22 22
4 4 7 11 12 10 10 11 10 9 9 9 11 10 10 11 11 11 11 10 11 12 14 15 17 17 16 15 16 15 15 15 16 16 18 18 19 20 21 22 20 19 20
2 3 5 8 8 8 7 8 7 7 7 8 8 8 9 10 11 11 11 12 12 12 11 10 10 10 11 12 12 14 14 15 17 18 18 18 18 20 19 19 18 17 18
2 2 1 2 3 4 5 6 8 9 8 9 9 10 11 11 11 10 8 6 4 3 4 5 7 9 11 12 14 14 14 16 17 18 18 17 17 17 17 17 17 15 16
2 2 3 2 3 4 5 5 5 7 7 9 8 8 7 6 4 0 2 2 2 4 6 7 9 10 12 13 15 16 16 16 15 16 18 18 17 16 14 14 15 16 14
2 4 3 4 5 5 6 6 5 4 3 5 4 2 1 3 3 2 3 4 6 7 9 11 11 11 12 14 16 17 15 14 12 14 17 16 14 12 11 10 12 13 12
4 3 3 3 5 8 10 11 8 7 6 4 1 4 4 3 1 3 6 8 11 13 15 14 13 12 11 12 15 16 14 13 13 15 16 13 12 11 9 9 9 7 12
6 5 6 8 12 12 15 16 14 8 3 1 3 2 1 3 5 8 9 11 12 13 13 14 15 15 14 11 10 11 12 12 14 14 14 13 12 9 7 7 7 9 8
6 7 6 8 9 10 12 16 12 7 3 2 1 2 5 8 10 11 11 11 11 9 9 10 12 12 11 11 11 11 11 12 12 13 12 11 10 8 8 7 6 8 8
12 10 10 9 10 14 16 15 12 6 3 4 5 6 7 9 11 12 12 13 11 8 6 8 10 10 10 10 10 11 10 9 10 11 11 10 9 6 5 5 6 6 5
14 13 13 14 15 18 20 19 15 8 7 10 9 10 11 13 13 13 12 14 12 8 6 7 7 8 7 8 10 10 9 9 10 10 9 8 7 5 4 4 5 4 4
18 16 16 19 20 19 20 18 19 19 18 16 14 16 15 15 15 14 11 11 12 9 6 7 8 7 9 8 9 9 9 8 9 8 7 6 5 4 4 4 4 2 1
Wind_Direction
318 357 9 13 17 22 26 17 16 19 16 79 126 149 222 227 219 217 209 210 215 222 224 225 230 233 234 237 235 244 248 237 236 239 247 254 255 255 250 259 255 243 251
317 336 352 3 12 10 11 17 27 26 33 70 83 112 106 141 167 185 204 213 216 223 228 226 225 237 236 232 250 257 254 246 235 232 234 247 261 252 270 253 261 247 263
2 351 341 355 358 6 12 17 28 34 50 69 70 120 104 113 137 175 191 212 219 237 245 235 243 252 260 252 251 261 268 259 236 228 233 243 249 251 257 269 257 240 229
327 336 339 341 335 350 359 6 14 24 41 50 47 60 101 108 123 152 176 210 245 234 237 243 249 251 253 254 255 254 245 233 236 239 249 251 255 253 259 254 217 235 230
315 311 317 312 314 315 340 359 18 20 15 26 30 39 60 60 249 246 188 103 116 270 245 244 247 248 251 259 264 260 267 256 253 256 249 256 256 263 268 243 217 216 227
313 319 315 309 288 293 331 351 6 26 40 26 29 22 27 22 5 321 277 287 275 242 241 251 248 254 262 254 241 269 262 263 271 256 275 274 255 257 250 240 217 227 236
307 302 306 309 300 302 302 323 336 60 58 26 8 360 359 358 27 27 317 285 270 258 237 269 255 243 254 265 272 273 266 260 265 266 259 250 242 235 235 251 237 229 246
294 293 290 296 295 322 283 301 207 267 340 356 351 348 357 10 42 32 345 306 284 271 255 243 256 255 250 265 267 273 265 256 256 257 259 269 262 279 262 266 280 267 262
285 284 281 281 278 296 256 246 243 293 289 312 322 322 321 337 322 334 335 299 277 270 263 258 261 262 260 261 260 271 282 270 259 264 257 250 259 270 273 273 270 268 265
287 281 274 275 266 263 257 255 246 284 280 307 303 312 309 315 317 317 303 290 291 294 288 277 269 268 269 251 255 269 273 277 267 257 276 284 284 278 268 272 281 273 269
286 270 248 256 253 245 249 250 250 262 274 292 292 302 306 308 306 292 275 278 259 274 274 289 287 298 295 278 264 268 264 276 284 278 274 272 273 273 276 278 276 277 282
282 250 223 238 231 241 244 252 268 251 271 291 293 288 283 286 295 332 322 235 289 294 275 277 273 263 274 287 277 277 275 279 280 279 272 276 280 278 280 281 280 279 280
271 221 214 226 235 250 236 251 245 284 285 276 284 297 273 268 274 283 275 235 287 297 295 299 260 260 269 274 286 278 275 280 280 281 285 282 283 280 279 277 278 279 282
231 175 214 214 250 241 258 223 254 268 281 281 285 277 267 254 262 278 263 279 280 284 270 277 277 279 281 283 287 289 290 289 287 286 286 287 287 288 289 288 289 289 287
202 179 180 194 219 236 260 267 276 278 272 277 269 266 259 254 264 274 275 284 277 279 280 280 282 286 291 294 293 292 291 293 297 298 298 298 300 301 299 299 298 297 293
131 180 220 247 255 256 252 261 267 260 258 266 269 261 262 271 272 275 283 281 284 288 291 294 297 298 297 295 295 299 302 306 306 305 304 304 304 302 299 300 300 296 291
209 249 255 237 236 247 259 263 248 244 251 254 255 261 264 269 275 281 288 293 290 289 295 299 302 306 309 315 315 313 312 309 306 305 305 303 298 296 298 298 297 295 292
264 272 198 194 219 224 235 239 248 254 257 263 268 272 274 275 279 284 286 284 297 322 328 323 316 312 310 308 306 308 311 312 313 313 308 303 302 302 303 306 306 303 296
160 174 172 193 247 247 235 234 244 263 270 274 276 277 280 282 280 171 101 64 355 311 309 312 314 316 314 312 314 319 323 322 321 312 304 304 305 301 301 302 300 300 300
231 250 250 246 246 250 261 271 272 279 304 285 286 286 153 124 86 39 352 332 318 317 324 326 327 326 324 322 318 318 325 324 323 311 312 315 313 310 307 302 295 294 298
247 295 331 319 319 335 339 349 355 334 327 296 260 131 119 104 38 323 322 330 330 328 330 332 332 333 328 320 315 319 325 324 326 325 327 328 325 323 318 309 310 332 310
15 1 10 359 8 1 343 339 341 345 334 206 168 127 37 333 335 330 336 334 330 328 327 328 327 324 330 330 328 326 328 334 331 325 322 323 327 325 304 293 295 281 332
330 291 320 348 352 351 338 336 336 328 268 222 228 328 328 322 326 332 330 322 323 328 323 314 315 320 331 345 349 348 341 340 341 342 339 333 325 319 318 322 322 311 302
273 294 311 310 322 326 322 326 328 329 274 252 270 286 304 317 319 326 329 321 326 334 321 310 314 324 339 340 341 339 337 340 344 344 344 342 340 338 332 325 336 331 318
280 293 298 309 307 305 308 312 311 319 280 273 287 301 313 316 320 323 320 309 315 320 316 318 321 317 324 331 338 340 338 342 345 347 346 345 347 350 342 333 346 350 1
273 278 286 287 288 293 296 293 297 305 310 307 306 309 306 308 306 307 309 302 301 314 320 315 318 319 310 313 322 326 331 337 341 341 346 347 345 338 343 351 326 313 342